St. Cloud, MN

8:44 AM CDT on March 25, 2017 (GMT -0500)
Saint Cloud Regional

Weather History for KSTC - September, 2011

Change the Weather History Date:

Sunday, September 4, 2011

  Actual Average Record
Temperature  
Mean Temperature 57 °F 63 °F  
Max Temperature 68 °F 75 °F 98 °F (1922)
Min Temperature 46 °F 52 °F 32 °F (1974)
Degree Days  
Heating Degree Days 8 4  
Month to date heating degree days 8 14  
Since 1 July heating degree days 9 72  
Cooling Degree Days 0 2  
Month to date cooling degree days 19 8  
Year to date cooling degree days 577 437  
Growing Degree Days 8 (Base 50)    
Moisture  
Dew Point 47 °F    
Average Humidity 68    
Maximum Humidity 93    
Minimum Humidity 42    
Precipitation  
Precipitation T in 0.13 in 1.25 in (1971)
Month to date precipitation 0.16 0.54  
Year to date precipitation 25.51 20.12  
Snow  
Snow 0.00 in 0.00 in 0.00 in ()
Month to date snowfall 0.0 0.0  
Since 1 July snowfall 0.0 0.0  
Since 1 September snowfall 0.0 0.0  
Snow Depth 0.00 in    
Sea Level Pressure  
Sea Level Pressure 30.13 in    
Wind  
Wind Speed 10 mph (NW)    
Max Wind Speed 25 mph    
Max Gust Speed 35 mph    
Visibility 10 miles    
Events      
T = Trace of Precipitation, MM = Missing Value Source: NWS Daily Summary

Daily Weather History Graph

Daily Weather History Graph

Search for Another Location

Airport or City:

Trip Planner

Search our weather history database for the weather conditions in past years. The results will help you decide how hot, cold, wet, or windy it might be!

Date:

Astronomy

Sep. 04, 2011 Rise Set
Actual Time 6:40 AM CDT 7:48 PM CDT
Civil Twilight 6:10 AM CDT 8:19 PM CDT
Nautical Twilight 5:33 AM CDT 8:55 PM CDT
Astronomical Twilight 4:55 AM CDT 9:34 PM CDT
Moon 2:51 PM CDT (9/4) 11:44 PM CDT (9/4)
Length of Visible Light 14h 08m
Length of Day
13h 07m
Waxing Crescent, 50% of the Moon is Illuminated
Sep 4
Waxing Crescent
Sep 4
First Quarter
Sep 12
Full
Sep 20
Last Quarter
Sep 27
New

Hourly Weather History & Observations

Time (CDT) Temp. Dew Point Humidity Pressure Visibility Wind Dir Wind Speed Gust Speed Precip Events Conditions
12:53 AM 57.9 °F 48.9 °F 72% 30.00 in 10.0 mi WNW 13.8 mph - N/A   Clear
1:53 AM 57.0 °F 48.9 °F 74% 30.01 in 10.0 mi WNW 13.8 mph - N/A   Clear
2:53 AM 55.4 °F 48.2 °F 77% 30.00 in 10.0 mi WNW 12.7 mph - N/A   Clear
3:53 AM 55.4 °F 48.2 °F 77% 30.00 in 10.0 mi WNW 12.7 mph - N/A   Clear
4:53 AM 54.0 °F 48.0 °F 80% 30.04 in 10.0 mi NW 13.8 mph - N/A   Clear
5:53 AM 53.1 °F 48.0 °F 83% 30.05 in 10.0 mi NW 11.5 mph - N/A   Scattered Clouds
6:53 AM 51.8 °F 48.2 °F 88% 30.06 in 10.0 mi NW 12.7 mph - N/A   Scattered Clouds
7:33 AM 53.6 °F 48.2 °F 82% 30.07 in 10.0 mi NW 13.8 mph - N/A   Overcast
7:53 AM 54.0 °F 48.9 °F 83% 30.10 in 10.0 mi NW 16.1 mph - N/A   Scattered Clouds
8:15 AM 55.4 °F 48.2 °F 77% 30.08 in 10.0 mi NW 15.0 mph - N/A   Mostly Cloudy
8:45 AM 55.4 °F 48.2 °F 77% 30.09 in 10.0 mi NW 15.0 mph - N/A   Overcast
8:53 AM 55.9 °F 48.9 °F 77% 30.12 in 10.0 mi NW 12.7 mph - N/A   Mostly Cloudy
9:29 AM 59.0 °F 50.0 °F 72% 30.10 in 10.0 mi NNW 10.4 mph 21.9 mph N/A   Mostly Cloudy
9:53 AM 60.1 °F 50.0 °F 69% 30.13 in 10.0 mi North 12.7 mph 19.6 mph N/A   Mostly Cloudy
10:06 AM 60.8 °F 50.0 °F 68% 30.11 in 10.0 mi NNW 19.6 mph 25.3 mph N/A   Mostly Cloudy
10:53 AM 60.1 °F 46.0 °F 60% 30.16 in 10.0 mi North 16.1 mph 28.8 mph N/A   Scattered Clouds
11:53 AM 63.0 °F 45.0 °F 52% 30.17 in 10.0 mi NNW 18.4 mph 25.3 mph N/A   Scattered Clouds
12:53 PM 64.9 °F 45.0 °F 48% 30.17 in 10.0 mi North 15.0 mph 26.5 mph N/A   Scattered Clouds
1:53 PM 66.0 °F 44.1 °F 45% 30.18 in 10.0 mi NNW 16.1 mph 23.0 mph N/A   Scattered Clouds
2:53 PM 68.0 °F 44.1 °F 42% 30.17 in 10.0 mi North 13.8 mph 20.7 mph N/A   Scattered Clouds
3:53 PM 66.9 °F 45.0 °F 45% 30.17 in 10.0 mi NW 11.5 mph 20.7 mph N/A   Scattered Clouds
4:53 PM 60.1 °F 48.9 °F 67% 30.20 in 10.0 mi NNE 4.6 mph - 0.00 in   Overcast
5:53 PM 64.0 °F 46.9 °F 54% 30.19 in 10.0 mi NNW 8.1 mph - N/A   Partly Cloudy
6:53 PM 63.0 °F 46.0 °F 54% 30.20 in 10.0 mi NNW 8.1 mph - N/A   Scattered Clouds
7:53 PM 57.0 °F 46.9 °F 69% 30.21 in 10.0 mi NNW 4.6 mph - N/A   Clear
8:53 PM 53.1 °F 46.9 °F 80% 30.22 in 10.0 mi Calm Calm - N/A   Clear
9:53 PM 51.1 °F 46.0 °F 83% 30.23 in 10.0 mi NNW 4.6 mph - N/A   Clear
10:53 PM 48.9 °F 46.0 °F 90% 30.23 in 10.0 mi Calm Calm - N/A   Clear
11:53 PM 46.9 °F 45.0 °F 93% 30.24 in 10.0 mi Calm Calm - N/A   Clear